Regional Weather Roundup
Issued by NWS New Orleans/Baton Rouge, LA

Home | Current Version | Previous Version | Text Only | Print | Product List | Glossary On
Versions: 1 2 3 4 5 6 7 8 9 10 11 12 13 14 15 16 17 18 19 20 21 22 23 24 25 26 27 28 29 30 31 32 33 34 35 36 37 38 39 40 41 42 43 44 45 46 47 48 49 50
000
ASUS44 KLIX 240411
RWRLIX
NEW ORLEANS REGIONAL WEATHER ROUNDUP
NATIONAL WEATHER SERVICE NEW ORLEANS LA
1100 PM CDT SAT JUL 23 2016

NOTE: "FAIR" INDICATES FEW OR NO CLOUDS BELOW 12,000 FEET WITH NO
      SIGNIFICANT WEATHER AND/OR OBSTRUCTIONS TO VISIBILITY.
      SKY/WX - SKY CONDITION AND SIGNIFICANT WEATHER.
      TMP - AIR TEMPERATURE.     DP    - DEWPOINT TEMPERATURE.
      RH  - RELATIVE HUMIDITY.   PRES  - PRESSURE.
      HI  - HEAT INDEX.          WCI   - WIND CHILL INDEX.

*  THESE STATIONS ARE NOT NWS OR FAA STATIONS AND ARE NOT UNDER
   NWS QUALITY CONTROL.

LAZ038-040-048-061>063-065>067-069-240500-
SOUTHEAST LOUISIANA

CITY           SKY/WX    TMP DP  RH WIND       PRES   REMARKS
N.O. AUDUBON   NOT AVBL
N.O. INTL ARPT MOCLDY    84  76  76 CALM      29.98R
N.O. LAKEFRONT LGT RAIN  80  72  76 W7        30.00F
N.O. DOWNTOWN*   N/A     84  75  74 N6        30.00R
RESERVE*         N/A     77  75  94 CALM      29.99R
SLIDELL        MOCLDY    81  78  91 CALM      29.98R
BATON ROUGE    CLOUDY    79  75  87 CALM      29.98R
BOOTHVILLE     CLEAR     83  77  82 CALM      30.00R
BELLE CHASSE   MOCLDY    79  77  94 NW3       29.98R
BOGALUSA*        N/A     81  75  84 CALM      30.00S
GALLIANO*      PTCLDY    73  73  98 CALM      29.99R
NEW ROADS*       N/A     77  75  91 SE3       29.98R
GONZALES*        N/A     76  76 100 CALM      29.98S
HAMMOND*       PTCLDY    77  72  83 CALM      29.99R
HOUMA*         CLEAR     78  78  98 CALM      29.99R
PORT FOURCHON* CLEAR     86  75  70 SW3       29.99S HX  95

$$

MSZ070-080>082-240500-
SOUTHERN MISSISSIPPI

CITY           SKY/WX    TMP DP  RH WIND       PRES   REMARKS
MCCOMB         CLOUDY    78  74  87 CALM      30.00S
GULFPORT       PTCLDY    81  77  88 CALM      29.98R
BILOXI         PTCLDY    84  77  80 W1        29.98R
PASCAGOULA     PTCLDY    77  77 100 CALM      29.99R

$$

COASTAL OBSERVATIONS
LAKE AND NEARSHORE STATIONS

STATION/POSITION TIME  TEMP    WIND        PRES    WAVE
                       AIR SEA DIR/SP/G            HT/PER
                 (UTC) (F)     (DEG/KT/KT) (MB)    (FT/S)
PASCAGOULA       0300   85                   N/A
WAVELAND YACHT   0300   85 88                N/A
GRAND ISLE       0300   85 90                N/A
SOUTHWEST PASS   0300          210/  3/  4   N/A
NEW CANAL        0300   85 89                N/A
SHELL BEACH      0300   85 89                N/A

OFFSHORE STATIONS

STATION/POSITION TIME  TEMP    WIND        PRES    WAVE
                       AIR SEA DIR/SP/G            HT/PER
                 (UTC) (F)     (DEG/KT/KT) (MB)    (FT/S)
64 S DAUPHIN ISL 0300   84 88  180/  4/  6 1015.1

$$




USA.gov is the U.S. government's official web portal to all federal, state and local government web resources and services.